CW4352 Weather Reports


time (UTC)temp
C
wind
direction
speed
KPH
gust
KPH
rain 1hr
cm
rain 24hr
cm
rain mn
cm
humidity
%
barometer
mb
20260902000204 21 316 3.2 4.8 0.00 0.03 0.00 85 1013.2
20260901234704 22 316 1.6 4.8 0.00 0.03 0.00 85 1013.2
20260901231705 22 316 1.6 3.2 0.00 0.03 0.00 84 1012.3
20260901224204 22 316 1.6 4.8 0.00 0.03 0.00 86 1013.1
20260901223204 22 316 1.6 4.8 0.00 0.03 0.00 86 1013.1
20260901221704 22 316 0.0 0.0 0.00 0.03 0.00 84 1013.1
20260901221204 22 316 0.0 0.0 0.00 0.03 0.00 84 1013.1
20260901220705 22 316 0.0 1.6 0.00 0.03 0.00 84 1013.1
20260901213204 23 316 0.0 4.8 0.00 0.03 0.03 84 1013.0
20260901211704 23 316 1.6 4.8 0.00 0.03 0.03 83 1013.0
20260901211204 23 316 1.6 3.2 0.00 0.03 0.03 83 1013.0
20260901210204 23 316 1.6 4.8 0.00 0.03 0.03 83 1012.9
20260901203204 23 316 1.6 4.8 0.00 0.03 0.03 76 1012.8
20260901201204 24 316 0.0 0.0 0.00 0.03 0.03 73 1012.6
20260901194704 25 316 0.0 1.6 0.00 0.03 0.03 72 1012.6
20260901193706 25 316 1.6 3.2 0.00 0.03 0.03 67 1012.6
20260901190704 26 39 1.6 3.2 0.00 0.03 0.03 59 1011.9
20260901184704 26 39 1.6 4.8 0.00 0.03 0.03 55 1011.9
20260901181704 27 40 1.6 3.2 0.03 0.03 0.03 55 1011.1
20260901180204 27 42 1.6 4.8 0.03 0.03 0.03 55 1011.1
20260901174204 28 43 1.6 3.2 0.03 0.03 0.03 56 1011.1
20260901173704 28 45 0.0 1.6 0.03 0.03 0.03 57 1011.1
20260901173203 28 45 0.0 11.3 0.03 0.03 0.03 57 1011.2
20260901170704 28 43 1.6 8.0 0.00 0.00 0.00 52 1011.1
20260901170204 29 46 3.2 8.0 0.00 0.00 0.00 51 1011.1
20260901164704 30 89 1.6 8.0 0.00 0.00 0.00 49 1010.8
20260901164203 30 44 1.6 4.8 0.00 0.00 0.00 49 1010.8
20260901161204 30 32 3.2 4.8 0.00 0.00 0.00 42 1011.1
20260901160203 31 46 1.6 19.3 0.00 0.00 0.00 42 1011.1
20260901154203 31 17 3.2 8.0 0.00 0.00 0.00 44 1011.1
20260901151704 31 20 3.2 12.9 0.00 0.00 0.00 41 1011.1
20260901150203 31 8 3.2 8.0 0.00 0.00 0.00 39 1011.2
20260901143204 31 42 1.6 12.9 0.00 0.00 0.00 39 1011.6
20260901141204 31 34 1.6 4.8 0.00 0.00 0.00 37 1011.6
20260901140704 31 28 1.6 4.8 0.00 0.00 0.00 37 1011.6
20260901140204 31 33 1.6 4.8 0.00 0.00 0.00 39 1011.8
20260901134204 32 32 1.6 4.8 0.00 0.00 0.00 38 1011.8
20260901133704 32 31 3.2 4.8 0.00 0.00 0.00 38 1011.8
20260901133204 32 35 3.2 9.7 0.00 0.00 0.00 37 1011.8
20260901131204 31 28 0.0 4.8 0.00 0.00 0.00 38 1012.1
20260901130203 31 12 4.8 11.3 0.00 0.00 0.00 40 1012.1
20260901124704 31 45 1.6 8.0 0.00 0.00 0.00 44 1012.1
20260901124203 31 351 1.6 4.8 0.00 0.00 0.00 38 1012.1
20260901121203 30 26 3.2 8.0 0.00 0.00 0.00 41 1012.5
20260901120704 30 47 3.2 4.8 0.00 0.00 0.00 41 1012.5
20260901114204 30 338 3.2 8.0 0.00 0.00 0.00 43 1012.5
20260901111704 29 34 0.0 4.8 0.00 0.00 0.00 45 1012.6
20260901111204 29 34 3.2 4.8 0.00 0.00 0.00 46 1012.7
20260901110703 29 30 3.2 8.0 0.00 0.00 0.00 47 1012.7
20260901110204 28 355 3.2 14.5 0.00 0.00 0.00 48 1012.7
20260901104204 28 16 3.2 4.8 0.00 0.00 0.00 49 1012.7
20260901101706 27 355 1.6 4.8 0.00 0.00 0.00 55 1012.9
20260901100206 27 28 3.2 11.3 0.00 0.00 0.00 55 1012.9
20260901094704 27 12 3.2 9.7 0.00 0.00 0.00 56 1012.9
20260901093703 27 21 4.8 9.7 0.00 0.00 0.00 57 1012.9
20260901091704 27 4 4.8 9.7 0.00 0.00 0.00 57 1012.9
20260901091204 27 5 3.2 8.0 0.00 0.00 0.00 57 1012.9
20260901090704 27 331 4.8 8.0 0.00 0.00 0.00 56 1012.9
20260901090204 27 341 4.8 12.9 0.00 0.00 0.00 54 1012.9
20260901084704 26 316 3.2 9.7 0.00 0.00 0.00 54 1012.2
20260901084203 26 333 3.2 9.7 0.00 0.00 0.00 54 1012.2
20260901081204 26 349 4.8 9.7 0.00 0.00 0.00 55 1012.2
20260901080203 26 9 1.6 9.7 0.00 0.00 0.00 55 1012.2
20260901074203 26 352 0.0 4.8 0.00 0.00 0.00 54 1012.2
20260901073704 26 345 3.2 4.8 0.00 0.00 0.00 54 1012.2
20260901073204 26 345 3.2 4.8 0.00 0.00 0.00 53 1012.2
20260901071203 26 325 1.6 4.8 0.00 0.00 0.00 51 1012.1
20260901070704 25 321 1.6 3.2 0.00 0.00 0.00 52 1012.1
20260901070203 25 321 0.0 1.6 0.00 0.00 0.00 50 1012.1
20260901064704 24 321 1.6 4.8 0.00 0.00 0.00 52 1012.1
20260901064203 23 321 0.0 1.6 0.00 0.00 0.00 54 1012.1
20260901063203 23 321 0.0 3.2 0.00 0.00 0.00 56 1012.1
20260901061703 22 321 0.0 1.6 0.00 0.00 0.00 58 1011.8
20260901053704 21 321 0.0 0.0 0.00 0.00 0.00 62 1011.8
20260901051703 21 321 1.6 4.8 0.00 0.00 0.00 62 1011.5
20260901050703 20 321 3.2 4.8 0.00 0.00 0.00 62 1011.5
20260901050203 20 321 1.6 4.8 0.00 0.00 0.00 62 1011.5
20260901041703 21 321 1.6 3.2 0.00 0.00 0.00 61 1011.5
20260901040203 21 321 0.0 3.2 0.00 0.00 0.00 59 1011.5
20260901034703 21 321 0.0 1.6 0.00 0.00 0.00 58 1011.5
20260901024703 21 291 1.6 3.2 0.00 0.00 0.00 60 1011.0
20260901023203 21 291 0.0 1.6 0.00 0.00 0.00 59 1011.0
20260901021703 21 291 0.0 1.6 0.00 0.00 0.00 59 1010.8
20260901021203 21 291 0.0 1.6 0.00 0.00 0.00 59 1010.8
20260901014704 21 291 1.6 4.8 0.00 0.00 0.00 58 1010.7
20260901013703 22 291 3.2 4.8 0.00 0.00 0.00 56 1010.1
20260901011703 23 291 3.2 4.8 0.00 0.00 0.00 51 1010.1
20260901011203 23 291 1.6 3.2 0.00 0.00 0.00 51 1010.1
20260901010703 23 291 1.6 4.8 0.00 0.00 0.00 51 1010.1
20260901010203 23 291 3.2 4.8 0.00 0.00 0.00 50 1010.1
20260901004204 23 291 3.2 4.8 0.00 0.00 0.00 50 1010.0